DW3153 Weather Reports


time (UTC)temp
C
wind
direction
speed
KPH
gust
KPH
rain 1hr
cm
rain 24hr
cm
rain mn
cm
humidity
%
barometer
mb
20260507095827 11 148 0.0 0.0 0.00 0.00 0.00 89 1019.3
20260507094816 11 148 0.0 0.0 0.00 0.00 0.00 88 1019.3
20260507093828 12 148 0.0 0.0 0.00 0.00 0.00 89 1019.3
20260507092754 12 141 0.0 0.0 0.00 0.00 0.00 89 1019.4
20260507091748 12 136 0.0 1.6 0.00 0.00 0.00 90 1019.4
20260507090717 12 142 0.0 1.6 0.00 0.00 0.00 90 1019.5
20260507085729 12 142 0.0 1.6 0.00 0.00 0.00 91 1019.5
20260507084717 11 158 0.0 0.0 0.00 0.00 0.00 91 1019.6
20260507083724 11 175 0.0 0.0 0.00 0.00 0.00 91 1019.7
20260507082733 11 175 0.0 0.0 0.00 0.00 0.00 91 1019.8
20260507081756 11 175 0.0 0.0 0.00 0.00 0.00 91 1019.8
20260507075721 10 175 0.0 0.0 0.00 0.00 0.00 91 1019.7
20260507074704 10 175 0.0 0.0 0.00 0.00 0.00 91 1019.8
20260507072513 10 175 0.0 0.0 0.00 0.00 0.00 90 1019.7
20260507071501 10 175 0.0 0.0 0.00 0.00 0.00 90 1019.7
20260507070508 11 175 0.0 0.0 0.00 0.00 0.00 90 1019.6
20260507065521 11 175 0.0 0.0 0.00 0.00 0.00 89 1019.6
20260507064523 11 175 0.0 0.0 0.00 0.00 0.00 89 1019.7
20260507063541 11 175 0.0 0.0 0.00 0.00 0.00 89 1019.6
20260507061334 11 175 0.0 0.0 0.00 0.00 0.00 88 1019.6
20260507060338 11 175 0.0 0.0 0.00 0.00 0.00 87 1019.5
20260507055352 12 175 0.0 0.0 0.00 0.00 0.00 87 1019.5
20260507053216 12 154 0.0 0.0 0.00 0.00 0.00 86 1019.5
20260507052216 12 153 0.0 0.0 0.00 0.00 0.00 86 1019.5
20260507051207 12 153 0.0 0.0 0.00 0.00 0.00 85 1019.5
20260507045006 13 165 0.0 1.6 0.00 0.00 0.00 85 1019.4
20260507044018 13 165 0.0 1.6 0.00 0.00 0.00 85 1019.3
20260507041906 13 182 0.0 0.0 0.00 0.00 0.00 83 1019.3
20260507040904 13 181 0.0 0.0 0.00 0.00 0.00 83 1019.3
20260507035847 13 181 0.0 0.0 0.00 0.00 0.00 83 1019.3
20260507034908 14 181 0.0 0.0 0.00 0.00 0.00 82 1019.1
20260507033927 14 181 0.0 0.0 0.00 0.00 0.00 81 1019.0
20260507031832 15 155 0.0 3.2 0.00 0.00 0.00 79 1018.7
20260507030854 15 161 0.0 0.0 0.00 0.00 0.00 78 1018.6
20260507025849 16 161 0.0 0.0 0.00 0.00 0.00 77 1018.6
20260507024852 16 165 0.0 0.0 0.00 0.00 0.00 77 1018.7
20260507023826 16 178 0.0 0.0 0.00 0.00 0.00 76 1018.7
20260507022759 16 179 1.6 6.4 0.00 0.00 0.00 75 1018.5
20260507021749 17 160 1.6 6.4 0.00 0.00 0.00 73 1018.4
20260507020733 18 112 1.6 6.4 0.00 0.00 0.00 72 1018.4
20260507015753 18 184 1.6 8.0 0.00 0.00 0.00 69 1018.4
20260507014729 20 181 1.6 8.0 0.00 0.00 0.00 67 1018.3
20260507013727 20 149 0.0 8.0 0.00 0.00 0.00 67 1018.3
20260507012716 20 142 0.0 8.0 0.00 0.00 0.00 67 1018.4
20260507011722 20 207 0.0 6.4 0.00 0.00 0.00 67 1018.3
20260507010648 20 143 0.0 6.4 0.00 0.00 0.00 67 1018.3
20260507005620 20 165 0.0 4.8 0.00 0.00 0.00 68 1018.3
20260507004641 20 169 0.0 6.4 0.00 0.00 0.00 68 1018.3
20260507003658 20 15 1.6 8.0 0.00 0.00 0.00 68 1018.3
20260507002648 20 185 1.6 11.3 0.00 0.00 0.00 67 1018.3
20260507001709 20 122 1.6 11.3 0.00 0.00 0.00 67 1018.4
20260506235505 21 145 1.6 6.4 0.00 0.00 0.00 66 1018.4
20260506232159 21 139 1.6 8.0 0.00 0.00 0.00 67 1018.6
20260506231219 21 130 1.6 8.0 0.00 0.00 0.00 67 1018.8
20260506230222 20 139 1.6 8.0 0.00 0.00 0.00 68 1018.8
20260506225226 20 146 1.6 9.7 0.00 0.00 0.00 67 1018.9
20260506224211 21 136 1.6 9.7 0.00 0.00 0.00 65 1019.1
20260506223156 21 132 1.6 9.7 0.00 0.00 0.00 64 1019.1
20260506222208 21 143 1.6 9.7 0.00 0.00 0.00 64 1019.2
20260506221154 21 158 1.6 9.7 0.00 0.00 0.00 64 1019.4
20260506220140 21 136 1.6 8.0 0.00 0.00 0.00 64 1019.6
20260506215122 21 137 1.6 8.0 0.00 0.00 0.00 63 1019.6
20260506214136 21 139 1.6 12.9 0.00 0.00 0.00 62 1019.8
20260506212027 21 142 1.6 6.4 0.00 0.00 0.00 63 1019.9
20260506211003 22 139 1.6 11.3 0.00 0.00 0.00 62 1019.8
20260506204828 22 134 1.6 9.7 0.00 0.00 0.00 61 1019.9
20260506203823 22 148 1.6 8.0 0.00 0.00 0.00 62 1019.9
20260506202756 22 119 1.6 8.0 0.00 0.00 0.00 62 1020.1
20260506201739 22 139 1.6 6.4 0.00 0.00 0.00 60 1020.2
20260506195630 22 142 1.6 8.0 0.00 0.00 0.00 62 1020.6
20260506194608 22 146 1.6 9.7 0.00 0.00 0.00 61 1020.5
20260506193554 22 167 3.2 11.3 0.00 0.00 0.00 63 1020.6
20260506192603 22 39 3.2 11.3 0.00 0.00 0.00 63 1020.8
20260506191535 22 195 0.0 8.0 0.00 0.00 0.00 61 1020.8
20260506185407 21 155 0.0 6.4 0.00 0.00 0.00 63 1020.9
20260506184428 21 240 1.6 6.4 0.00 0.00 0.00 63 1020.8
20260506183430 21 220 1.6 8.0 0.00 0.00 0.00 63 1021.1
20260506182432 21 266 0.0 8.0 0.00 0.00 0.00 63 1021.0
20260506181430 20 314 0.0 6.4 0.00 0.00 0.00 66 1021.0
20260506175251 18 174 1.6 6.4 0.00 0.00 0.00 67 1021.0
20260506174306 19 207 1.6 6.4 0.00 0.00 0.00 66 1021.0
20260506173303 18 181 1.6 9.7 0.00 0.00 0.00 69 1021.0
20260506171120 18 206 1.6 6.4 0.00 0.00 0.00 68 1021.1
20260506170138 18 200 1.6 6.4 0.00 0.00 0.00 70 1021.1
20260506165136 18 183 1.6 6.4 0.00 0.00 0.00 70 1021.1
20260506164158 18 195 0.0 6.4 0.00 0.00 0.00 69 1021.1
20260506163138 18 202 1.6 6.4 0.00 0.00 0.00 69 1021.1
20260506162143 18 195 1.6 6.4 0.00 0.00 0.00 69 1021.1
20260506160043 18 188 0.0 4.8 0.00 0.00 0.00 68 1021.1
20260506155042 18 176 0.0 1.6 0.00 0.00 0.00 67 1021.0
20260506154036 18 160 0.0 0.0 0.00 0.00 0.00 68 1021.1
20260506153023 18 159 0.0 0.0 0.00 0.00 0.00 66 1021.0
20260506151954 18 153 0.0 0.0 0.00 0.00 0.00 68 1021.1
20260506151008 18 190 0.0 1.6 0.00 0.00 0.00 68 1021.0
20260506145938 17 170 0.0 0.0 0.00 0.00 0.00 72 1021.0
20260506144945 18 170 0.0 0.0 0.00 0.00 0.00 70 1020.9
20260506142907 17 174 0.0 0.0 0.00 0.00 0.00 75 1020.8
20260506140749 14 161 0.0 0.0 0.00 0.00 0.00 91 1020.7
20260506135810 13 161 0.0 0.0 0.00 0.00 0.00 92 1020.6
20260506134805 12 161 0.0 0.0 0.00 0.00 0.00 92 1020.4
20260506133820 11 161 0.0 0.0 0.00 0.00 0.00 92 1020.5
20260506132757 11 161 0.0 0.0 0.00 0.00 0.00 92 1020.4
20260506131822 11 161 0.0 0.0 0.00 0.00 0.00 92 1020.4
20260506130838 11 161 0.0 0.0 0.00 0.00 0.00 92 1020.4
20260506124638 11 161 0.0 0.0 0.00 0.00 0.00 93 1020.2
20260506123655 11 161 0.0 0.0 0.00 0.00 0.00 93 1020.2
20260506122700 11 161 0.0 0.0 0.00 0.00 0.00 93 1020.2
20260506121720 11 161 0.0 0.0 0.00 0.00 0.00 93 1020.1
20260506120713 11 161 0.0 0.0 0.00 0.00 0.00 93 1020.1
20260506114551 11 161 0.0 0.0 0.00 0.00 0.00 93 1020.0
20260506113536 11 161 0.0 0.0 0.00 0.00 0.00 93 1019.9
20260506112528 11 161 0.0 0.0 0.00 0.00 0.00 93 1019.9
20260506111527 11 161 0.0 0.0 0.00 0.00 0.00 93 1019.8
20260506105404 11 161 0.0 0.0 0.00 0.00 0.00 93 1019.6
20260506104335 11 161 0.0 0.0 0.00 0.00 0.00 93 1019.6
20260506102215 11 161 0.0 0.0 0.00 0.00 0.00 93 1019.5
20260506101233 11 161 0.0 0.0 0.00 0.00 0.00 93 1019.4
20260506100201 11 161 0.0 0.0 0.00 0.00 0.00 93 1019.3